Regional Weather Roundup
Issued by NWS Charleston, SC

Current Version | Previous Version | Graphics & Text | Print | Product List | Glossary On
Versions: 1 2 3 4 5 6 7 8 9 10 11 12 13 14 15 16 17 18 19 20 21 22 23 24 25 26 27 28 29 30 31 32 33 34 35 36 37 38 39 40 41 42 43 44 45 46 47 48 49 50
000 ASUS42 KCHS 191527 RWRCHS REGIONAL WEATHER ROUNDUP NATIONAL WEATHER SERVICE CHARLESTON SC 1000 AM EST SUN FEB 19 2017 NOTE: "FAIR" INDICATES FEW OR NO CLOUDS BELOW 12,000 FEET WITH NO SIGNIFICANT WEATHER AND/OR OBSTRUCTIONS TO VISIBILITY. NOT ALL STATIONS ARE QUALITY CONTROLLED. USE DATA WITH CAUTION... ESPECIALLY DEWPOINT OBSERVATIONS. SCZ027-030-031-034>040-042>050-191600- ...SOUTHEAST SOUTH CAROLINA... CITY SKY/WX TMP DP RH WIND PRES REMARKS N CHARLESTON MOSUNNY 63 50 62 NW9 30.03R WATERFRONT PRK N/A 60 52 74 W6 30.02R MOUNT PLEASANT FAIR 66 54 63 NW8 30.03S JOHNS ISLAND FAIR 66 54 63 W7 30.04S PINOPOLIS N/A 57 52 82 CALM 29.94R MONCKS CORNER FAIR 64 50 59 NW5 30.03S SUMMERVILLE FAIR 63 52 67 W12 30.05S BEAUFORT MCAS SUNNY 65 55 70 W8G18 30.05S BEAUFORT ARPT FAIR 64 54 68 W8 30.05S HILTON HEAD IS SUNNY 68 55 64 SW6 30.06S WALTERBORO SUNNY 64 52 63 W9 30.05R ALLENDALE FAIR 64 54 68 VRB5G12 30.04S ...SOUTHERN MIDLANDS AND PEE DEE... CITY SKY/WX TMP DP RH WIND PRES REMARKS GEORGETOWN FAIR 61 50 67 W9G16 30.03S KINGSTREE FAIR 61 48 63 NW9 30.03R ORANGEBURG SUNNY 62 51 67 NW8 30.02F BARNWELL FAIR 64 55 72 VRB6G13 30.05R AIKEN FAIR 63 50 63 W10 30.07R MANNING FAIR 61 48 63 MISG 30.03S COLUMBIA SUNNY 62 49 62 NW8 30.02S SUMTER SUNNY 60 48 64 N5 30.00R FLORENCE SUNNY 59 48 67 NW7 30.03R MYRTLE BEACH SUNNY 59 48 67 NW8 30.03R N MYRTLE BEACH SUNNY 60 49 66 NW9 30.00S $$ GAZ063-065-086>088-099>101-113>116-118-119-134>141-150-191600- ...SOUTHEAST GEORGIA... CITY SKY/WX TMP DP RH WIND PRES REMARKS SAVANNAH ARPT MOSUNNY 65 51 60 W8 30.07R HUNTER AAF SUNNY 65 55 70 NW5 30.05R FORT STEWART SUNNY 64 53 66 W6 30.06R STATESBORO SUNNY 66 57 71 NW12 30.07S SYLVANIA SUNNY N/A N/A N/A NW9 30.08R CLAXTON FAIR N/A N/A N/A W9 30.08S ...CSRA...CENTRAL AND FAR SOUTHEAST GEORGIA... CITY SKY/WX TMP DP RH WIND PRES REMARKS THOMSON SUNNY 64 58 79 W8 30.11R AUGUSTA-BUSH SUNNY 65 54 67 NW12 30.04S AUGUSTA-DANIEL SUNNY 63 51 65 VRB7 30.05R SWAINSBORO PTSUNNY 63 55 77 NW7 30.08S VIDALIA SUNNY 66 61 82 W9 30.08S EASTMAN FAIR 67 52 57 N8 30.10S HAZLEHURST FAIR 64 60 88 SW5 30.08S ALMA CLOUDY 61 59 93 NW5 30.09S WAYCROSS PTSUNNY 68 64 88 NW6 30.09S JESUP FAIR 64 55 72 NW7 30.08S BAXLEY CLOUDY 61 61 100 W5 30.09S BRUNSWICK SUNNY 68 61 77 NW8 30.08S SAINT SIMONS MOSUNNY 64 58 80 NW9 30.07S $$ SCZ027-028-034-036>038-045-046-048>050-GAZ119-141-191600- ...LAKE AND SUPPLEMENTAL COASTAL OBSERVATIONS... STATION/POSITION TIME TEMP WIND PRES WAVE SWELL AIR SEA DIR/SP/G HT/PER HT/PER/DIR (UTC) (F) (DEG/KT/KT) (MB) (FT/S) (FT/S/D) WINYAH BAY 1430 58 300/ 6 1016.0S LAKE MURRAY 1430 55 270/ 5/ 7 1016.3S ACE BASIN NERRS 1445 63 270/ 3 1017.0S FORT PULASKI 1500 62 59 310/ 11/ 12 1018.3 SAPELO ISLAND 1500 62 300/ 7 1018.0 $$ ANZ835-935-AMZ111-154-330-350-352-354-370-450-454-472-191600- ...C-MAN AND BUOY OBSERVATIONS... STATION/POSITION TIME TEMP WIND PRES WAVE SWELL AIR SEA DIR/SP/G HT/PER HT/PER/DIR (UTC) (F) (DEG/KT/KT) (MB) (FT/S) (FT/S/D) BUOY 41004 1450 61 68 290/ 12/ 16 1016.6R 2/ 3 2/ 80/ 9 BUOY 41008 1450 59 61 270/ 8/ 10 1018.0R 1/ 5 2/130/ 5 FOLLY BEACH CMAN 1500 63 290/ 5/ 7 1017.6R CAPERS NEARSHORE 1408 56 58 290/ 8/ 12 1016.6R FRIPP NEARSHORE 1508 59 59 250/ 8/ 10 1017.4R STATION/POSITION TIME TEMP WIND PRES WAVE SWELL AIR SEA DIR/SP/G HT/PER HT/PER/DIR (UTC) (F) (DEG/KT/KT) (MB) (FT/S) (FT/S/D) 5E ST. MARYS GA 1500 63 N/A 1/ 3 FRYING PAN BUOY 1510 59 64 280/ 17/ 19 1015.6 BUOY 41025 1450 62 67 280/ 10/ 12 1013.6R 2/ 7 2/180/ 7 CAPE LOOKOUT NC 1500 56 270/ 9/ 11 1013.7R BUOY 41002 1450 68 71 170/ 16/ 17 1014.8F 5/ 6 2/ 50/ 9 BUOY 41010 NOT AVBL ST AUGUSTINE FL 1500 66 65 300/ 7/ 10 1019.6R $$

USA.gov is the U.S. government's official web portal to all federal, state and local government web resources and services.